Stations météo

réclame
Mon MeteoGroup
Mte.Calamita, Italie (16197): Température de l'air & dewpoint: 18.10.2018 07:00:00 - 24.10.2018 07:00:00 (CEST)Mte.Calamita, Italie (16197): Vitesse du vent: 18.10.2018 07:00:00 - 24.10.2018 07:00:00 (CEST)Mte.Calamita, Italie (16197): Direction du vent: 18.10.2018 07:00:00 - 24.10.2018 07:00:00 (CEST)Mte.Calamita, Italie (16197): reduced air pressure: 18.10.2018 07:00:00 - 24.10.2018 07:00:00 (CEST)Mte.Calamita, Italie (16197): visibility: 18.10.2018 07:00:00 - 24.10.2018 07:00:00 (CEST)Mte.Calamita, Italie (16197): Ensoleillement: 18.10.2018 07:00:00 - 24.10.2018 07:00:00 (CEST)
Date & Time tt [°C] td [°C] ff [km/h] ff [knt] dd ppp [hPa] vv [km] sd [min]
24.10.2018 07:00:00 - - - - - - - -
24.10.2018 06:00:00 - - - - - - - -
24.10.2018 05:00:00 - - - - - - - -
24.10.2018 04:00:00 - - - - - - - -
24.10.2018 03:00:00 - - - - - - - -
24.10.2018 02:00:00 - - - - - - - -
24.10.2018 01:00:00 - - - - - - - -
24.10.2018 00:00:00 - - - - - - - -
23.10.2018 23:00:00 - - - - - - - -
23.10.2018 22:00:00 - - - - - - - -
23.10.2018 21:00:00 - - - - - - - -
23.10.2018 20:00:00 15,2 13,2 15 8 NNE 1018,3 10 0
23.10.2018 19:00:00 16,0 13,0 13 7 NNE - 10 -
23.10.2018 18:00:00 17,0 13,0 22 12 NNE - 10 -
23.10.2018 17:00:00 18,8 10,9 22 12 NNE 1017,8 30 60
23.10.2018 16:00:00 19,0 11,0 22 12 NNE - 10 -
23.10.2018 15:00:00 19,0 12,0 26 14 NNE - 10 -
23.10.2018 14:00:00 18,0 10,9 16 9 NE 1018,9 30 60
23.10.2018 13:00:00 17,0 11,0 22 12 NNE - 10 -
23.10.2018 12:00:00 16,0 10,0 18 10 NNE - 10 -
23.10.2018 11:00:00 14,6 10,0 22 12 NNE 1020,2 30 60
23.10.2018 10:00:00 13,0 10,0 24 13 NNE - 10 -
23.10.2018 09:00:00 12,0 9,0 26 14 NE - 10 -
23.10.2018 08:00:00 12,0 9,5 29 16 NE 1019,6 15 0
23.10.2018 07:00:00 12,0 10,0 28 15 NE - 10 -
23.10.2018 06:00:00 - - - - - - - -
23.10.2018 05:00:00 - - - - - - - -
23.10.2018 04:00:00 - - - - - - - -
23.10.2018 03:00:00 - - - - - - - -
23.10.2018 02:00:00 - - - - - - - -
23.10.2018 01:00:00 - - - - - - - -
23.10.2018 00:00:00 - - - - - - - -
22.10.2018 23:00:00 - - - - - - - -
22.10.2018 22:00:00 - - - - - - - -
22.10.2018 21:00:00 - - - - - - - -
22.10.2018 20:00:00 13,8 8,0 28 15 NNE 1016,7 10 0
22.10.2018 19:00:00 14,0 8,0 26 14 NNE - 10 -
22.10.2018 18:00:00 15,0 7,0 24 13 NNE - 10 -
22.10.2018 17:00:00 16,2 7,7 22 12 N 1015,0 30 60
22.10.2018 16:00:00 16,0 8,0 28 15 ENE - 10 -
22.10.2018 15:00:00 16,0 8,0 29 16 NNE - 10 -
22.10.2018 14:00:00 15,0 7,8 29 16 NNE 1015,5 30 30
22.10.2018 13:00:00 14,0 8,0 34 18 N - 10 -
22.10.2018 12:00:00 13,0 7,0 31 17 NNE - 10 -
22.10.2018 11:00:00 11,6 5,5 29 16 N 1017,0 30 0
22.10.2018 10:00:00 10,0 6,0 28 15 NNE - 10 -
22.10.2018 09:00:00 10,0 5,0 34 18 NNE - 10 -
22.10.2018 08:00:00 10,0 5,2 31 17 N 1017,2 25 0
22.10.2018 07:00:00 10,0 5,0 28 15 NE - 10 -
22.10.2018 06:00:00 - - - - - - - -
22.10.2018 05:00:00 - - - - - - - -
22.10.2018 04:00:00 - - - - - - - -
22.10.2018 03:00:00 - - - - - - - -
22.10.2018 02:00:00 - - - - - - - -
22.10.2018 01:00:00 - - - - - - - -
22.10.2018 00:00:00 - - - - - - - -
21.10.2018 23:00:00 - - - - - - - -
21.10.2018 22:00:00 - - - - - - - -
21.10.2018 21:00:00 - - - - - - - -
21.10.2018 20:00:00 18,2 16,7 18 10 N 1013,8 10 0
21.10.2018 19:00:00 17,0 17,0 21 11 NNW - 10 -
21.10.2018 18:00:00 18,0 18,0 21 11 NNW - 10 -
21.10.2018 17:00:00 20,0 18,3 13 7 N 1013,6 12 0
21.10.2018 16:00:00 21,0 18,0 9 5 N - 10 -
21.10.2018 15:00:00 21,0 15,0 8 4 NNW - 10 -
21.10.2018 14:00:00 20,6 13,8 5 3 NNW 1015,4 25 60
21.10.2018 13:00:00 20,0 16,0 5 3 NNW - 10 -
21.10.2018 12:00:00 20,0 12,0 2 1 NNW - 10 -
21.10.2018 11:00:00 19,8 10,8 5 3 WNW 1017,6 25 60
21.10.2018 10:00:00 19,0 9,0 8 4 SW - 10 -
21.10.2018 09:00:00 17,0 8,0 8 4 W - 10 -
21.10.2018 08:00:00 16,0 8,7 4 2 NNE 1018,2 20 0
21.10.2018 07:00:00 16,0 9,0 5 3 NNE - 10 -
21.10.2018 06:00:00 - - - - - - - -
21.10.2018 05:00:00 - - - - - - - -
21.10.2018 04:00:00 - - - - - - - -
21.10.2018 03:00:00 - - - - - - - -
21.10.2018 02:00:00 - - - - - - - -
21.10.2018 01:00:00 - - - - - - - -
21.10.2018 00:00:00 - - - - - - - -
20.10.2018 23:00:00 - - - - - - - -
20.10.2018 22:00:00 - - - - - - - -
20.10.2018 21:00:00 - - - - - - - -
20.10.2018 20:00:00 18,2 14,7 5 3 NNW 1019,7 15 0
20.10.2018 19:00:00 18,0 15,0 4 2 NNE - 10 -
20.10.2018 18:00:00 19,0 14,0 8 4 N - 10 -
20.10.2018 17:00:00 20,8 13,3 4 2 N 1019,1 20 60
20.10.2018 16:00:00 22,0 12,0 4 2 N - 10 -
20.10.2018 15:00:00 22,0 11,0 4 2 N - 10 -
20.10.2018 14:00:00 21,8 11,2 4 2 NNE 1019,6 20 60
20.10.2018 13:00:00 21,0 11,0 2 1 NNW - 10 -
20.10.2018 12:00:00 20,0 11,0 5 3 NE - 10 -
20.10.2018 11:00:00 18,2 10,6 9 5 ESE 1020,1 20 60
20.10.2018 10:00:00 17,0 12,0 11 6 ENE - 10 -
20.10.2018 09:00:00 16,0 11,0 4 2 E - 10 -
20.10.2018 08:00:00 16,2 9,7 5 3 ENE 1018,6 20 0
20.10.2018 07:00:00 17,0 11,0 9 5 E - 10 -
20.10.2018 06:00:00 - - - - - - - -
20.10.2018 05:00:00 - - - - - - - -
20.10.2018 04:00:00 - - - - - - - -
20.10.2018 03:00:00 - - - - - - - -
20.10.2018 02:00:00 - - - - - - - -
20.10.2018 01:00:00 - - - - - - - -
20.10.2018 00:00:00 - - - - - - - -
19.10.2018 23:00:00 - - - - - - - -
19.10.2018 22:00:00 - - - - - - - -
19.10.2018 21:00:00 - - - - - - - -
19.10.2018 20:00:00 19,2 13,6 2 1 NNW 1015,7 10 0
19.10.2018 19:00:00 19,0 15,0 4 2 NNW - 10 -
19.10.2018 18:00:00 20,0 18,0 4 2 NNW - 10 -
19.10.2018 17:00:00 21,2 17,2 4 2 WNW 1014,5 20 60
19.10.2018 16:00:00 21,0 17,0 4 2 NNW - 10 -
19.10.2018 15:00:00 22,0 17,0 4 2 NNW - 10 -
19.10.2018 14:00:00 21,8 16,3 2 1 NNE 1015,0 20 60
19.10.2018 13:00:00 21,0 16,0 4 2 NNE - 10 -
19.10.2018 12:00:00 20,0 15,0 4 2 N - 10 -
19.10.2018 11:00:00 19,0 15,5 4 2 NNE 1015,3 20 60
19.10.2018 10:00:00 18,0 15,0 2 1 NNE - 10 -
19.10.2018 09:00:00 17,0 15,0 2 1 NE - 10 -
19.10.2018 08:00:00 16,8 15,0 9 5 SSE 1014,0 20 0
19.10.2018 07:00:00 17,0 14,0 9 5 SSE - 10 -
19.10.2018 06:00:00 - - - - - - - -
19.10.2018 05:00:00 - - - - - - - -
19.10.2018 04:00:00 - - - - - - - -
19.10.2018 03:00:00 - - - - - - - -
19.10.2018 02:00:00 - - - - - - - -
19.10.2018 01:00:00 - - - - - - - -
19.10.2018 00:00:00 - - - - - - - -
18.10.2018 23:00:00 - - - - - - - -
18.10.2018 22:00:00 - - - - - - - -
18.10.2018 21:00:00 - - - - - - - -
18.10.2018 20:00:00 19,0 15,9 2 1 NNW 1011,5 10 0
18.10.2018 19:00:00 20,0 18,0 2 1 N - 10 -
18.10.2018 18:00:00 21,0 19,0 2 1 NNW - 10 -
18.10.2018 17:00:00 22,0 18,4 2 1 NNW 1011,0 20 60
18.10.2018 16:00:00 22,0 18,0 4 2 NNE - 10 -
18.10.2018 15:00:00 22,0 17,0 2 1 N - 10 -
18.10.2018 14:00:00 21,0 16,8 2 1 NNE 1012,2 30 60
18.10.2018 13:00:00 21,0 17,0 2 1 N - 10 -
18.10.2018 12:00:00 19,0 17,0 5 3 NNE - 10 -
18.10.2018 11:00:00 17,6 15,6 11 6 N 1012,9 20 60
18.10.2018 10:00:00 17,0 15,0 15 8 ENE - 10 -
18.10.2018 09:00:00 16,0 14,0 13 7 ENE - 10 -
18.10.2018 08:00:00 16,2 14,2 13 7 NE 1013,0 15 0
18.10.2018 07:00:00 16,0 14,0 13 7 NNE - 10 -

tt = Température de l'air
td = dewpoint
ff = Vitesse du vent
dd = Direction du vent
ppp = reduced air pressure
vv = visibility
sd = Ensoleillement

stations d'obs. à proximité